Regional Weather Roundup
Issued by NWS

Home | Current Version | Previous Version | Text Only | Print | Product List | Glossary Off
Versions: 1 2 3 4 5 6 7 8 9 10 11 12 13 14 15 16 17 18 19 20 21 22 23 24 25 26 27 28 29 30 31 32 33 34 35 36 37 38 39 40 41 42 43 44 45 46 47 48 49 50

000
ASUS43 KLOT 110703
RWRIL

ILLINOIS REGIONAL WEATHER ROUNDUP
NATIONAL WEATHER SERVICE CHICAGO/ROMEOVILLE IL
100 AM CST THU FEB 11 2016

NOTE: "FAIR" INDICATES FEW OR NO CLOUDS BELOW 12,000 FEET WITH NO
SIGNIFICANT WEATHER AND/OR OBSTRUCTIONS TO VISIBILITY.

* THESE STATIONS ARE NOT UNDER NWS QUALITY CONTROL. THEY ALSO MAY NOT
  REPORT WEATHER SUCH AS PRECIPITATION OR FOG.

ILZ001-002-007-009-015-016-024-110800-
NORTHWEST ILLINOIS

CITY           SKY/WX    TMP DP  RH WIND       PRES   REMARKS
MOLINE         CLEAR     12   2  64 N3        30.22R
STERLING*      CLOUDY    14   1  57 N6        30.18R WCI   5
$$

ILZ003-004-008-010-011-017-018-110800-
NORTH CENTRAL ILLINOIS

CITY           SKY/WX    TMP DP  RH WIND       PRES   REMARKS
ROCKFORD       MOCLDY    10   1  67 NW5       30.21R WCI   2
FREEPORT*      CLOUDY    10   2  70 NW6       30.21R WCI   0
ROCHELLE*      MOCLDY    11   4  73 N6        30.19S WCI   1
DE KALB*       PTCLDY     8   3  78 NW5       30.18R WCI   0
$$

ILZ005-006-012>014-019>023-110800-
NORTHEAST ILLINOIS

CITY           SKY/WX    TMP DP  RH WIND       PRES   REMARKS
CHICAGO-OHARE  CLOUDY    12   0  58 NW10      30.17R WCI  -1
CHICAGO-MIDWAY CLOUDY    13   0  56 NW9       30.18R WCI   1
AURORA         PTCLDY    10   4  76 NW6       30.19R WCI   0
LANSING*       PTCLDY    13   1  59 NW7       30.17R WCI   2
WAUKEGAN       CLEAR      8  -1  66 NW6       30.16S WCI  -2
DUPAGE AIRPORT PTCLDY    11   1  64 NW8       30.17R WCI  -1
WHEELING       CLOUDY    10   0  63 NW9       30.19R WCI  -3
MORRIS*        PTCLDY    10   3  74 CALM      30.16S
NORTHERLY ISL    N/A     14   1  56 NW9         N/A  WCI   2
$$

LMZ740>746-110800-
SOUTHERN LAKE MICHIGAN

STATION/POSITION SKY/WX   TEMP    WIND        PRES    VSBY  WAVE
                          AIR SEA DIR/SP/G                  HT/PER
                          (F)     (DEG/KT/KT) (MB)    (MI)  (FT/S)
HARRISON CRIB              14     320/ 14/ 15   N/A
BURNHAM HARBOR             14     310/  4/ 12   N/A
CALUMET HARBOR                    290/  9/ 13   N/A
BURNS HARBOR               17     320/ 12/ 18 1021.3S
MICHIGAN CITY              17     290/ 14/ 17   N/A
$$

ILZ025>027-034>036-040-047-049-050-058-095>099-110800-
WEST-CENTRAL ILLINOIS

CITY           SKY/WX    TMP DP  RH WIND       PRES   REMARKS
QUINCY         CLOUDY    19  13  77 N9        30.18S WCI   8
MACOMB*        CLOUDY    17   8  67 N10       30.22R WCI   5
$$

ILZ028>032-037-038-041>044-048-051>054-059>061-110800-
CENTRAL ILLINOIS

CITY           SKY/WX    TMP DP  RH WIND       PRES   REMARKS
BLOOMINGTON    CLEAR     12   5  73 N6        30.17S WCI   3
DECATUR        CLOUDY    18   7  62 N7        30.17S WCI   9
PEORIA         CLOUDY    14   3  61 N3        30.20R
LINCOLN*       CLOUDY    19  10  68 N5        30.19S WCI  12
SPRINGFIELD    CLOUDY    21  14  74 N9        30.18S WCI  11
TAYLORVILLE    NOT AVBL
$$

ILZ033-039-045-046-055>057-062-063-110800-
EAST-CENTRAL ILLINOIS

CITY           SKY/WX    TMP DP  RH WIND       PRES   REMARKS
CHAMPAIGN      CLOUDY    13   6  74 N5        30.16S WCI   5
MATTOON        CLOUDY    18  12  77 N8        30.16S WCI   8
$$

ILZ079-100>102-110800-
SOUTHWEST ILLINOIS

CITY           SKY/WX    TMP DP  RH WIND       PRES   REMARKS
ALTON          CLOUDY    21  18  88 NE3       30.17S
BELLEVILLE     CLOUDY    22  21  96 NE6       30.16S WCI  15
CAHOKIA*       CLOUDY    23  18  81 NE6       30.16F WCI  16
SPARTA*        CLOUDY    21  19  91 NE6       30.16F WCI  13
$$

ILZ064>066-069>071-074>076-080>082-084>086-088>090-092>094-110800-
SOUTH-CENTRAL ILLINOIS

CITY           SKY/WX    TMP DP  RH WIND       PRES   REMARKS
CARBONDALE     CLOUDY    23  18  81 E3        30.16S
MARION         CLOUDY    23  21  93 E3        30.16F
MT. VERNON     CLOUDY    21  16  79 NE5       30.17S WCI  15
CENTRALIA*     CLOUDY    22  19  91 NE3       30.16F
SALEM*         CLOUDY    22  18  85 CALM      30.17F
$$

ILZ067-068-072-073-078-083-087-091-110800-
SOUTHEAST ILLINOIS

CITY           SKY/WX    TMP DP  RH WIND       PRES   REMARKS
LAWRENCEVILLE  CLOUDY    20  15  81 NW5       30.20R WCI  13
HARRISBURG*    CLOUDY    23  20  89 CALM      30.18S
ROBINSON*      CLOUDY    19  14  81 CALM      30.20S
$$

ABBREVIATIONS USED IN REMARKS
   TC - TEMPERATURE IN CELSIUS
  WCI - WIND CHILL INDEX
   HX - HEAT INDEX
  VSB - VISIBILITY
$$




USA.gov is the U.S. government's official web portal to all federal, state and local government web resources and services.